Location: ????????
(55.3939°N, 37.4780°E)
Time: 11:16:34
(UTC+00:00)

Cosmos 1627 Rocket - Pass Details

Date: 14 April 2026
Orbit: 950 x 1002 km, 82.9° (Epoch: 10 May)

Event Time Altitude Azimuth Distance (km) Brightness Sun altitude
Rises 23:23:59 0° 347° (NNW) 3,661 8.2 -20.7°
Reaches altitude 10° 23:26:29 10° 346° (NNW) 2,717 7.4 -20.5°
Maximum altitude 23:32:42 75° 263° (W) 1,012 4.4 -20.1°
Enters shadow 23:36:01 30° 183° (S) 1,694 5.3 -19.8°
